Vorticity
9 9 9 9 9 9 10 10 10 11 11 10 10 9 8 7 6 6 7 8 12 16 20 25 27 26 23 18 12 8 5 6 8 10 13 16 18 20 22 22 20 18 15 12 9 8 7 6 5 5 6 6 6 7 7 7 7 7 7 6 6 5 5 4 4 4 4 4 4
9 9 9 9 10 10 11 11 11 11 10 9 8 7 6 6 7 8 11 15 20 23 26 28 25 21 15 9 7 7 8 11 14 16 19 21 21 20 19 16 13 10 7 6 5 5 5 6 6 7 7 7 7 7 7 7 7 6 6 5 5 5 5 4 5 5 5 5 6
10 10 10 11 11 11 11 11 10 10 9 8 7 6 6 8 11 14 18 23 26 27 27 24 18 14 10 8 9 11 13 16 18 19 20 19 17 14 11 8 6 5 4 5 5 6 7 7 8 8 8 8 7 7 7 6 6 6 6 6 6 6 6 6 6 6 7 7 8
11 11 12 12 12 11 10 10 9 8 7 6 6 8 10 13 17 21 25 27 27 26 22 17 13 11 10 11 13 15 17 18 18 17 15 12 9 7 5 4 4 4 5 6 7 8 8 8 8 8 7 7 7 6 6 6 6 6 6 6 6 7 7 8 8 8 8 8 9
12 12 12 12 11 10 9 8 7 7 7 7 9 13 16 20 24 26 27 27 24 21 17 14 13 12 13 14 15 16 16 16 14 11 8 5 4 4 4 5 6 7 8 8 8 8 8 8 7 7 7 7 6 6 6 7 7 7 7 8 8 8 8 8 9 8 8 8 8
12 12 12 11 10 8 7 6 6 8 10 12 16 20 24 26 27 27 26 23 20 17 15 14 14 14 14 15 14 13 12 10 7 5 3 3 4 5 6 7 8 9 9 9 8 8 8 8 7 7 7 7 7 7 7 8 8 8 8 8 8 8 8 8 8 8 8 7 7
12 11 10 8 7 6 6 8 10 14 17 21 24 26 27 27 26 24 22 19 17 16 15 14 13 13 12 11 10 8 7 4 3 3 4 5 6 7 8 9 9 9 9 9 8 8 8 8 8 8 8 8 8 8 8 8 8 8 8 8 8 8 7 7 7 7 7 7 7
9 8 7 6 7 9 11 15 18 22 24 27 27 27 25 24 22 20 19 17 16 14 13 11 10 9 8 7 6 4 3 3 4 5 6 7 8 9 9 9 9 9 9 8 8 8 8 8 8 8 8 8 8 8 8 8 8 7 7 7 8 8 8 8 8 8 8 8 8
7 7 8 10 13 17 20 23 25 26 26 26 26 24 22 21 19 17 16 14 12 10 8 7 7 6 5 4 3 3 4 5 6 7 8 9 9 10 10 9 9 9 9 8 8 8 8 8 8 8 8 8 8 7 7 7 7 7 8 8 8 8 8 8 9 9 9 9 9
11 12 15 18 22 24 26 26 26 26 25 24 23 21 19 18 16 14 12 10 8 6 5 5 5 4 3 3 4 4 6 7 8 9 9 9 10 9 9 9 9 8 8 8 8 8 8 8 7 7 7 7 7 7 7 7 8 8 8 8 9 9 9 9 9 9 8 8 8
17 20 22 25 26 27 26 26 25 24 23 21 20 18 16 14 12 10 8 7 5 4 4 4 3 3 4 5 6 7 8 8 9 9 10 10 9 9 9 9 8 8 8 8 8 7 7 7 7 7 7 7 7 7 8 8 8 8 8 9 8 8 8 8 8 8 7 7 7
24 25 27 27 26 26 25 24 23 22 20 18 16 14 12 10 8 6 5 4 4 4 4 4 4 4 5 6 7 8 9 9 10 10 10 10 9 9 9 8 8 8 7 7 7 7 7 7 7 7 7 7 8 8 8 8 8 8 8 8 8 7 7 7 7 7 7 7 7
27 27 27 27 26 24 23 22 20 18 16 14 12 10 8 6 5 4 3 3 3 4 4 5 5 6 7 8 9 9 10 10 10 10 10 9 9 8 8 8 8 7 7 7 7 7 7 7 7 7 7 8 8 8 8 8 7 7 7 7 6 6 6 6 6 7 7 7 7
27 27 26 25 23 21 20 18 16 13 11 9 7 6 5 4 3 3 3 4 4 5 6 6 7 8 9 9 10 10 10 10 10 9 9 8 8 8 7 7 7 7 7 7 7 7 7 7 7 7 7 7 7 7 7 6 6 6 6 6 6 6 6 6 7 7 7 8 8
26 25 23 21 19 17 15 13 11 9 7 5 4 4 3 3 4 4 4 5 6 6 7 8 9 9 10 10 10 10 10 10 9 8 8 8 7 7 7 7 7 7 7 7 7 7 7 7 7 7 7 6 6 6 6 5 5 5 5 6 6 6 7 7 7 8 8 8 8
21 19 17 15 14 12 10 8 7 5 4 3 3 3 4 5 5 6 6 6 7 8 8 9 10 10 11 10 10 10 9 8 8 7 7 7 7 7 7 7 7 7 6 6 6 6 6 6 6 6 6 6 6 6 5 5 5 5 6 6 6 7 7 7 8 8 8 8 8
14 12 11 10 8 7 6 5 4 3 3 4 4 5 6 6 6 7 7 8 8 9 10 10 10 10 10 10 9 8 8 7 7 7 7 7 7 7 7 6 6 6 6 6 6 6 6 6 5 5 5 5 5 5 5 5 6 6 6 6 7 7 7 7 7 7 7 7 7
8 7 7 6 5 4 4 4 4 4 5 6 6 6 7 7 7 8 8 9 10 10 10 10 10 9 9 8 8 7 7 7 7 7 6 6 6 6 6 6 6 6 6 6 6 6 5 5 5 5 5 5 5 6 6 6 6 6 6 6 6 6 6 6 6 5 5 5 5
6 5 5 5 5 5 5 5 6 6 7 7 7 7 8 8 8 9 9 10 10 10 10 9 8 8 7 7 7 7 6 6 6 6 6 6 6 6 6 6 6 6 6 6 5 5 5 5 5 5 6 6 6 6 6 6 6 5 5 5 5 5 5 4 4 4 4 4 4
6 6 6 6 6 6 7 7 7 7 7 8 8 8 9 9 9 9 10 9 9 9 8 8 7 7 7 6 6 6 6 6 6 6 6 6 6 6 6 6 6 6 6 6 5 5 5 6 6 6 6 6 6 6 5 5 5 5 5 4 4 4 4 4 4 4 4 4 4
7 7 7 7 7 7 7 7 7 8 8 8 9 9 9 9 9 9 9 9 8 8 7 7 7 6 6 6 6 6 6 6 6 6 6 6 6 6 6 6 6 6 6 6 6 6 6 6 6 6 6 5 5 5 5 5 4 5 5 5 5 5 5 5 5 5 5 5 5
8 7 7 7 7 7 7 7 8 8 9 9 9 9 9 9 9 8 8 8 7 7 6 6 6 6 6 6 6 6 6 6 6 6 6 6 6 6 6 6 6 6 6 6 6 6 6 6 5 5 5 5 5 5 5 5 5 5 5 6 6 6 6 6 6 6 6 6 6
7 7 7 7 7 7 7 8 8 9 9 9 9 9 9 8 8 8 7 7 7 6 6 6 6 6 6 6 6 6 6 6 6 6 6 6 6 6 6 6 6 6 6 6 6 6 6 5 5 5 5 5 5 5 5 5 6 6 6 6 7 7 7 7 6 6 6 6 6
7 6 7 7 7 8 8 9 9 9 9 9 9 8 8 8 8 7 7 6 6 6 6 6 6 6 6 6 6 6 6 6 6 6 6 6 6 6 6 6 6 6 6 6 6 5 5 5 5 5 5 5 5 5 6 6 6 6 6 6 6 6 6 6 6 6 6 6 6
6 6 7 7 8 8 9 9 9 9 9 8 8 8 7 7 7 7 6 6 6 6 6 6 6 6 6 6 6 6 6 6 6 6 6 6 6 6 6 6 6 6 6 6 5 5 5 5 5 5 5 5 5 5 5 5 5 5 5 5 5 5 5 5 6 6 6 6 6
7 7 7 8 8 9 9 9 9 8 8 8 8 7 7 7 6 6 6 6 6 6 6 6 6 6 6 6 6 6 6 6 6 6 6 6 6 6 6 6 6 6 5 5 5 5 4 4 4 4 4 4 4 5 5 5 5 5 5 5 5 5 5 5 5 6 6 6 6
7 7 8 8 8 9 8 8 8 8 8 7 7 6 6 6 6 6 6 6 6 6 6 6 6 6 6 6 6 6 6 6 6 6 6 6 6 6 6 5 5 5 5 4 4 4 4 4 3 3 3 3 4 4 4 4 4 4 4 4 5 5 5 5 5 5 6 6 6
7 8 8 8 8 8 8 8 7 7 7 6 6 6 6 6 6 6 6 6 6 6 6 6 6 5 5 5 5 5 5 5 5 5 5 5 5 5 5 5 4 4 4 4 3 3 3 3 3 3 3 3 3 4 4 4 4 4 4 4 5 5 5 5 5 5 6 6 6
7 8 8 8 8 8 8 7 7 6 6 6 6 6 6 6 6 7 7 7 6 6 6 6 6 5 5 5 5 5 5 4 4 4 4 4 4 4 4 4 4 3 3 3 3 3 3 3 3 3 3 3 3 4 4 4 4 4 4 4 5 5 5 5 5 5 6 6 6
7 7 8 8 8 7 7 6 6 6 6 6 6 6 7 7 7 7 7 7 6 6 6 6 5 5 5 5 4 4 4 4 4 4 4 3 3 3 3 3 3 3 3 3 3 3 3 3 3 3 3 4 4 4 4 4 4 4 4 4 5 5 5 5 5 6 6 6 6
7 7 7 7 7 7 6 6 6 6 6 6 7 7 7 7 7 7 7 6 6 6 6 5 5 5 5 4 4 4 4 4 4 3 3 3 3 3 3 3 3 3 3 3 3 3 3 3 3 4 4 4 4 4 4 4 4 4 5 5 5 5 5 6 6 6 6 6 6
7 7 7 6 6 6 6 6 6 6 6 7 7 7 7 7 7 7 7 6 6 6 6 5 5 5 5 5 4 4 4 3 3 3 3 3 3 3 3 3 3 3 3 3 3 3 3 3 4 4 4 4 4 4 4 4 5 5 5 5 5 6 6 6 6 6 6 6 6
6 6 6 6 6 6 6 6 6 6 7 7 7 7 7 7 7 7 6 6 6 6 5 5 5 5 5 4 4 4 4 3 3 3 3 3 3 3 3 3 3 3 3 3 3 3 4 4 4 4 4 4 4 5 5 5 5 5 6 6 6 6 6 7 7 7 6 6 6
6 6 6 6 6 6 6 6 6 6 6 7 7 7 7 7 6 6 6 6 6 5 5 5 5 5 4 4 4 4 4 4 3 3 3 3 3 3 3 3 3 3 4 4 4 4 4 4 4 4 4 4 5 5 6 6 6 6 7 7 7 7 7 7 7 6 6 6 6
6 6 6 6 6 6 6 6 6 6 6 6 6 6 6 6 6 6 6 5 5 5 5 5 5 5 4 4 4 4 4 4 4 4 3 4 4 4 4 4 4 4 4 4 4 4 4 4 4 4 5 5 6 6 6 7 7 7 7 7 7 7 7 6 6 6 6 6 6
6 6 6 6 6 6 5 5 5 5 5 6 6 6 6 6 6 5 5 5 5 5 5 5 5 4 4 4 4 4 4 4 4 4 4 4 4 4 4 4 4 4 4 4 4 4 4 5 5 5 6 6 6 7 7 7 7 7 7 7 6 6 6 6 6 6 6 6 6
5 5 5 5 5 5 5 5 5 5 5 5 5 5 5 5 5 5 5 5 5 5 4 4 4 4 4 4 4 4 4 4 4 4 4 4 4 4 4 4 4 4 4 4 5 5 5 6 6 6 7 7 7 7 7 7 7 7 6 6 6 5 5 5 5 5 5 5 5
5 5 5 5 5 5 5 5 5 5 5 4 4 4 4 4 4 4 4 5 4 4 4 4 4 4 4 4 4 4 4 4 4 4 4 4 4 4 4 4 5 5 5 5 6 6 7 7 7 8 8 8 8 7 7 7 6 6 6 5 5 5 5 4 4 5 5 5 5
4 5 5 5 5 5 5 5 5 4 4 4 4 4 4 4 4 4 4 4 4 4 4 4 4 4 4 4 4 4 4 4 4 4 4 4 4 4 5 5 5 6 6 6 7 7 8 8 8 8 8 8 8 7 7 6 6 5 5 4 4 4 4 4 4 4 5 5 5
4 4 4 4 4 4 4 4 4 4 4 4 4 4 4 4 4 4 3 4 4 4 4 4 4 3 3 4 4 4 4 4 4 4 4 4 5 5 5 6 6 7 7 8 8 8 9 9 8 8 8 8 7 6 6 5 5 4 4 4 4 4 4 4 4 5 5 5 6
4 4 4 4 4 4 4 4 4 4 4 4 4 4 3 3 3 3 3 3 3 3 3 3 3 3 3 4 4 4 4 4 4 5 5 5 6 6 7 7 7 8 8 9 9 9 9 8 8 8 7 6 6 5 5 4 4 4 4 4 4 4 4 4 5 5 6 6 6
Height
5726 5726 5726 5726 5726 5726 5726 5726 5726 5726 5726 5726 5726 5725 5725 5725 5725 5724 5724 5724 5723 5723 5722 5722 5722 5721 5721 5720 5720 5720 5719 5719 5719 5718 5717 5717 5716 5716 5716 5715 5715 5714 5714 5713 5713 5712 5712 5711 5710 5710 5710 5709 5708 5708 5707 5707 5706 5706 5705 5705 5705 5704 5704 5703 5703 5703 5702 5702 5701
5723 5723 5723 5723 5723 5723 5723 5723 5723 5723 5723 5723 5723 5723 5722 5722 5722 5721 5721 5720 5720 5720 5720 5719 5719 5718 5718 5718 5718 5717 5717 5716 5716 5715 5715 5715 5714 5714 5714 5713 5713 5712 5712 5711 5711 5710 5710 5710 5709 5709 5708 5707 5707 5706 5706 5705 5705 5705 5704 5703 5703 5702 5702 5701 5701 5700 5700 5700 5699
5720 5720 5720 5720 5720 5720 5720 5720 5720 5720 5720 5720 5720 5720 5719 5719 5719 5718 5718 5717 5717 5717 5717 5716 5716 5716 5716 5715 5715 5715 5715 5714 5714 5713 5713 5713 5712 5712 5712 5711 5711 5710 5710 5710 5709 5709 5708 5708 5707 5707 5706 5705 5705 5705 5704 5704 5703 5703 5702 5702 5701 5701 5700 5700 5699 5699 5698 5697 5697
5717 5717 5717 5718 5718 5718 5718 5718 5718 5717 5717 5717 5717 5716 5716 5716 5715 5715 5715 5715 5715 5714 5714 5714 5714 5714 5713 5713 5713 5712 5712 5712 5711 5711 5711 5711 5710 5710 5710 5710 5709 5709 5708 5708 5707 5707 5706 5706 5705 5705 5704 5704 5703 5703 5702 5702 5701 5701 5700 5700 5699 5699 5698 5698 5697 5696 5696 5695 5695
5715 5715 5715 5715 5715 5715 5715 5715 5715 5714 5714 5714 5714 5714 5713 5713 5713 5712 5712 5712 5712 5712 5712 5711 5711 5711 5711 5710 5710 5710 5710 5710 5710 5709 5709 5709 5709 5708 5708 5708 5707 5707 5706 5706 5705 5705 5704 5704 5703 5703 5702 5702 5701 5701 5700 5700 5699 5699 5698 5698 5697 5697 5696 5695 5695 5694 5693 5693 5692
5712 5712 5712 5712 5712 5712 5712 5711 5711 5711 5711 5711 5711 5710 5710 5710 5710 5710 5710 5710 5710 5710 5710 5709 5709 5709 5709 5708 5708 5708 5708 5708 5708 5708 5707 5707 5707 5706 5706 5705 5705 5705 5704 5704 5703 5703 5702 5702 5701 5701 5700 5700 5700 5699 5698 5698 5697 5697 5696 5696 5695 5695 5694 5693 5692 5692 5691 5690 5689
5709 5709 5709 5709 5709 5709 5709 5709 5708 5708 5708 5708 5708 5708 5708 5708 5708 5708 5708 5708 5708 5707 5707 5707 5707 5706 5706 5706 5706 5706 5706 5706 5706 5705 5705 5705 5705 5704 5704 5703 5703 5702 5702 5701 5701 5701 5700 5700 5699 5699 5698 5698 5697 5697 5696 5696 5695 5695 5694 5693 5693 5692 5691 5690 5690 5689 5688 5688 5687
5706 5706 5706 5706 5706 5706 5706 5705 5705 5705 5705 5705 5705 5705 5705 5705 5705 5706 5706 5705 5705 5705 5705 5705 5705 5704 5704 5704 5704 5704 5704 5704 5704 5704 5703 5703 5703 5702 5702 5701 5701 5700 5700 5700 5699 5699 5698 5698 5697 5697 5696 5696 5695 5695 5694 5694 5693 5692 5692 5691 5690 5690 5689 5688 5687 5686 5685 5685 5684
5703 5703 5703 5703 5703 5703 5703 5703 5703 5703 5703 5703 5703 5703 5703 5704 5704 5704 5704 5704 5704 5703 5703 5703 5702 5702 5702 5703 5703 5702 5702 5702 5702 5702 5701 5701 5700 5700 5700 5699 5699 5698 5698 5698 5697 5697 5696 5696 5695 5695 5694 5694 5693 5693 5692 5691 5690 5690 5689 5689 5688 5687 5686 5685 5685 5684 5683 5682 5681
5700 5700 5700 5700 5700 5700 5700 5700 5700 5701 5701 5701 5701 5701 5701 5701 5702 5702 5702 5702 5701 5701 5701 5701 5701 5701 5701 5700 5700 5700 5700 5700 5700 5700 5699 5699 5698 5698 5698 5697 5697 5696 5696 5695 5695 5695 5694 5694 5693 5693 5692 5692 5691 5690 5690 5689 5688 5687 5687 5686 5685 5685 5684 5683 5682 5681 5680 5679 5679
5697 5697 5697 5698 5698 5698 5698 5698 5698 5699 5699 5699 5699 5699 5700 5700 5700 5700 5700 5700 5700 5699 5699 5699 5699 5699 5699 5699 5698 5698 5698 5698 5698 5697 5697 5697 5696 5696 5695 5695 5695 5695 5694 5694 5693 5693 5692 5692 5691 5690 5690 5689 5689 5688 5687 5686 5686 5685 5684 5684 5683 5682 5681 5680 5679 5678 5677 5677 5676
5695 5695 5695 5695 5695 5695 5696 5696 5696 5696 5697 5697 5697 5697 5698 5698 5698 5698 5698 5698 5698 5697 5697 5697 5697 5697 5697 5697 5696 5696 5696 5696 5695 5695 5695 5695 5694 5694 5694 5693 5693 5692 5692 5691 5691 5690 5690 5690 5689 5688 5688 5687 5686 5685 5685 5684 5683 5683 5682 5681 5680 5680 5679 5678 5677 5676 5675 5674 5673
5692 5693 5693 5693 5693 5694 5694 5694 5695 5695 5695 5695 5695 5696 5696 5696 5696 5696 5696 5696 5696 5695 5695 5695 5695 5695 5695 5695 5695 5694 5694 5694 5694 5693 5693 5693 5692 5692 5692 5691 5691 5690 5690 5690 5689 5688 5688 5687 5686 5686 5685 5685 5684 5683 5682 5682 5681 5680 5680 5679 5678 5677 5676 5675 5674 5673 5672 5671 5670
5690 5691 5691 5691 5692 5692 5692 5692 5693 5693 5693 5694 5694 5694 5694 5694 5695 5694 5694 5694 5694 5694 5693 5693 5693 5693 5693 5693 5692 5692 5692 5692 5692 5691 5691 5691 5690 5690 5690 5689 5689 5689 5688 5687 5687 5686 5685 5685 5684 5684 5683 5682 5681 5681 5680 5679 5679 5678 5677 5676 5675 5674 5673 5672 5671 5670 5669 5668 5667
5689 5689 5689 5690 5690 5690 5690 5691 5691 5691 5691 5692 5692 5692 5693 5693 5693 5693 5692 5692 5692 5692 5691 5691 5691 5691 5691 5691 5691 5690 5690 5690 5690 5690 5689 5689 5689 5688 5688 5687 5687 5686 5686 5685 5685 5684 5683 5683 5682 5681 5680 5680 5679 5678 5678 5677 5676 5675 5675 5674 5673 5672 5671 5670 5669 5668 5666 5665 5665
5687 5688 5688 5688 5688 5689 5689 5689 5690 5690 5690 5690 5690 5691 5691 5691 5691 5690 5690 5690 5690 5690 5690 5690 5689 5689 5689 5689 5689 5689 5688 5688 5688 5688 5687 5687 5687 5686 5686 5685 5685 5684 5684 5683 5682 5682 5681 5680 5680 5679 5678 5678 5677 5676 5675 5675 5674 5673 5672 5671 5670 5669 5668 5667 5666 5665 5664 5663 5661
5686 5686 5686 5687 5687 5687 5688 5688 5688 5688 5689 5689 5689 5689 5689 5689 5689 5689 5689 5688 5688 5688 5688 5688 5688 5687 5687 5687 5687 5687 5686 5686 5686 5686 5685 5685 5685 5684 5684 5683 5683 5682 5681 5681 5680 5680 5679 5678 5678 5677 5676 5675 5675 5674 5673 5672 5671 5670 5670 5669 5667 5666 5665 5664 5663 5662 5661 5660 5659
5685 5685 5685 5685 5686 5686 5686 5686 5687 5687 5687 5687 5687 5687 5687 5687 5687 5687 5687 5686 5686 5686 5686 5686 5686 5685 5685 5685 5685 5685 5685 5685 5684 5684 5684 5683 5683 5682 5682 5681 5680 5680 5680 5679 5678 5677 5677 5676 5675 5675 5674 5673 5672 5671 5670 5670 5669 5668 5667 5666 5665 5664 5663 5661 5660 5659 5658 5657 5655
5684 5684 5684 5684 5685 5685 5685 5685 5685 5685 5685 5685 5685 5685 5685 5685 5685 5685 5685 5685 5684 5684 5684 5684 5684 5684 5684 5684 5683 5683 5683 5683 5682 5682 5681 5681 5680 5680 5680 5679 5678 5678 5677 5677 5676 5675 5675 5674 5673 5672 5671 5671 5670 5669 5668 5667 5666 5665 5664 5663 5662 5661 5660 5659 5657 5656 5655 5654 5652
5682 5683 5683 5683 5683 5683 5683 5683 5683 5683 5683 5683 5683 5683 5683 5683 5683 5683 5683 5682 5682 5682 5682 5682 5682 5682 5682 5682 5681 5681 5681 5680 5680 5680 5680 5679 5678 5678 5677 5677 5676 5676 5675 5675 5674 5673 5672 5672 5671 5670 5669 5668 5667 5667 5666 5665 5664 5663 5662 5660 5660 5658 5657 5655 5654 5653 5651 5650 5649
5681 5681 5681 5681 5681 5681 5681 5681 5681 5681 5681 5681 5681 5681 5681 5681 5681 5681 5680 5680 5680 5680 5680 5680 5680 5680 5680 5680 5680 5679 5679 5679 5678 5678 5677 5677 5676 5676 5675 5675 5674 5674 5673 5672 5672 5671 5670 5670 5669 5668 5667 5666 5665 5664 5663 5662 5661 5660 5659 5658 5656 5655 5654 5652 5651 5650 5648 5646 5645
5680 5680 5680 5680 5680 5680 5680 5680 5680 5680 5680 5680 5679 5679 5679 5679 5679 5679 5679 5679 5679 5679 5679 5679 5679 5679 5678 5678 5678 5677 5677 5676 5676 5676 5675 5675 5674 5674 5673 5673 5672 5671 5671 5670 5670 5669 5668 5667 5666 5665 5665 5664 5663 5662 5661 5660 5659 5657 5656 5655 5653 5652 5650 5649 5647 5646 5645 5643 5641
5678 5678 5678 5678 5678 5678 5678 5678 5678 5678 5678 5678 5677 5677 5677 5677 5677 5677 5677 5677 5677 5677 5677 5677 5677 5676 5676 5676 5675 5675 5675 5675 5674 5674 5673 5673 5672 5671 5671 5670 5670 5669 5669 5668 5667 5666 5666 5665 5664 5663 5662 5661 5660 5659 5658 5657 5655 5654 5653 5651 5650 5649 5647 5645 5644 5642 5641 5639 5637
5676 5676 5676 5676 5676 5676 5676 5676 5676 5676 5676 5675 5675 5675 5675 5675 5675 5675 5675 5675 5675 5675 5675 5675 5675 5674 5674 5674 5673 5673 5673 5672 5672 5672 5671 5670 5670 5670 5669 5668 5667 5667 5666 5665 5665 5664 5663 5663 5662 5661 5660 5658 5657 5656 5655 5654 5652 5651 5650 5648 5647 5645 5644 5642 5640 5639 5637 5635 5633
5674 5674 5674 5674 5674 5674 5674 5674 5674 5674 5674 5674 5674 5674 5674 5674 5674 5674 5674 5674 5673 5673 5673 5673 5672 5672 5672 5672 5671 5671 5671 5670 5670 5670 5669 5668 5668 5667 5666 5666 5665 5665 5664 5663 5663 5662 5661 5660 5659 5658 5657 5655 5654 5653 5652 5650 5649 5648 5646 5645 5643 5642 5640 5638 5636 5635 5633 5631 5629
5672 5672 5672 5672 5672 5672 5672 5672 5672 5672 5672 5672 5672 5672 5672 5672 5672 5672 5672 5671 5671 5671 5671 5671 5670 5670 5670 5670 5669 5669 5669 5668 5668 5667 5667 5666 5666 5665 5664 5664 5663 5662 5662 5661 5660 5659 5658 5657 5656 5655 5654 5653 5651 5650 5649 5647 5646 5645 5643 5641 5640 5638 5636 5635 5633 5631 5629 5627 5625
5670 5670 5670 5670 5670 5670 5670 5670 5670 5670 5670 5670 5670 5670 5670 5670 5670 5670 5670 5670 5669 5669 5669 5669 5668 5668 5668 5667 5667 5667 5666 5666 5665 5665 5665 5664 5663 5663 5662 5661 5661 5660 5659 5658 5657 5656 5655 5655 5653 5652 5651 5650 5648 5647 5645 5644 5643 5641 5640 5638 5636 5635 5633 5631 5629 5627 5625 5623 5621
5669 5669 5669 5669 5669 5669 5669 5669 5668 5668 5668 5668 5668 5668 5668 5668 5668 5668 5668 5668 5667 5667 5667 5666 5666 5666 5666 5665 5665 5665 5664 5664 5663 5663 5662 5662 5661 5660 5660 5659 5658 5657 5656 5655 5655 5654 5652 5651 5650 5649 5648 5647 5645 5644 5642 5641 5639 5638 5636 5634 5632 5631 5629 5627 5625 5624 5622 5620 5617
5667 5667 5667 5667 5667 5667 5667 5667 5667 5667 5666 5666 5666 5666 5666 5666 5666 5666 5666 5665 5665 5665 5665 5665 5664 5664 5664 5663 5663 5662 5662 5661 5661 5660 5660 5659 5659 5658 5657 5656 5655 5655 5653 5652 5651 5650 5650 5648 5647 5646 5645 5643 5642 5640 5639 5637 5635 5634 5632 5630 5629 5627 5625 5624 5622 5620 5618 5616 5614
5665 5665 5665 5665 5665 5665 5665 5665 5665 5665 5665 5665 5665 5665 5664 5664 5664 5664 5664 5664 5663 5663 5663 5662 5662 5662 5661 5661 5660 5660 5660 5659 5659 5658 5657 5657 5656 5655 5654 5653 5652 5651 5650 5650 5649 5647 5646 5645 5644 5643 5641 5640 5639 5637 5635 5634 5632 5630 5628 5626 5625 5623 5621 5620 5618 5616 5614 5612 5610
5663 5663 5663 5663 5663 5663 5663 5663 5663 5663 5663 5663 5663 5662 5662 5662 5662 5662 5661 5661 5661 5660 5660 5660 5660 5659 5659 5659 5658 5658 5657 5657 5656 5655 5655 5654 5653 5652 5651 5650 5650 5649 5647 5646 5645 5644 5643 5642 5640 5639 5638 5636 5635 5633 5631 5630 5628 5626 5624 5622 5621 5619 5617 5615 5614 5612 5610 5608 5606
5661 5661 5661 5661 5661 5661 5661 5661 5661 5661 5661 5660 5660 5660 5660 5660 5660 5660 5659 5659 5659 5658 5658 5658 5657 5657 5657 5656 5656 5655 5655 5654 5653 5653 5652 5651 5650 5650 5649 5647 5646 5645 5645 5643 5642 5641 5640 5639 5637 5635 5634 5632 5630 5629 5627 5625 5624 5622 5620 5618 5617 5615 5613 5611 5609 5607 5605 5603 5601
5659 5659 5659 5659 5659 5659 5659 5659 5659 5659 5659 5659 5658 5658 5658 5658 5657 5657 5657 5656 5656 5656 5655 5655 5655 5655 5654 5654 5653 5653 5652 5651 5650 5650 5649 5648 5647 5646 5645 5645 5643 5642 5641 5640 5639 5638 5636 5635 5633 5632 5630 5628 5626 5625 5623 5621 5620 5618 5616 5614 5612 5610 5609 5607 5605 5603 5601 5599 5597
5657 5657 5657 5657 5657 5657 5657 5657 5656 5656 5656 5656 5656 5656 5655 5655 5655 5655 5654 5654 5654 5653 5653 5653 5652 5652 5651 5651 5650 5650 5649 5648 5648 5647 5646 5645 5644 5643 5642 5641 5640 5639 5638 5637 5635 5634 5633 5631 5630 5628 5626 5625 5623 5621 5620 5618 5616 5614 5612 5610 5608 5606 5605 5602 5600 5598 5596 5594 5592
5655 5655 5655 5655 5655 5655 5655 5654 5654 5654 5654 5654 5654 5653 5653 5653 5652 5652 5652 5651 5651 5650 5650 5650 5650 5649 5649 5648 5647 5647 5646 5645 5645 5644 5643 5642 5641 5640 5639 5638 5637 5635 5634 5633 5632 5630 5629 5627 5626 5624 5623 5621 5619 5618 5616 5614 5612 5610 5608 5606 5604 5602 5600 5598 5596 5594 5592 5590 5587
5652 5652 5652 5652 5652 5652 5652 5652 5652 5652 5652 5651 5651 5651 5650 5650 5650 5650 5649 5649 5648 5648 5648 5647 5647 5646 5646 5645 5645 5644 5643 5642 5642 5641 5640 5639 5638 5637 5636 5635 5633 5632 5631 5629 5628 5627 5625 5624 5622 5621 5619 5618 5616 5614 5612 5610 5608 5606 5604 5602 5600 5598 5596 5594 5592 5589 5587 5585 5583
5650 5650 5650 5650 5650 5650 5650 5649 5649 5649 5649 5649 5649 5648 5648 5647 5647 5647 5646 5646 5645 5645 5645 5644 5644 5643 5643 5642 5641 5641 5640 5639 5638 5637 5636 5635 5635 5633 5632 5631 5630 5629 5627 5626 5624 5623 5621 5620 5619 5617 5615 5614 5612 5610 5609 5606 5605 5602 5600 5598 5596 5594 5592 5590 5587 5585 5583 5580 5578
5647 5647 5647 5647 5647 5647 5647 5647 5646 5646 5646 5646 5646 5645 5645 5645 5644 5644 5643 5643 5643 5642 5642 5641 5641 5640 5640 5639 5638 5637 5637 5636 5635 5634 5633 5632 5631 5630 5629 5628 5626 5625 5624 5622 5621 5619 5618 5616 5615 5613 5612 5610 5608 5607 5605 5603 5601 5599 5597 5595 5592 5590 5588 5585 5583 5581 5578 5575 5573
5644 5644 5644 5644 5644 5644 5644 5644 5644 5644 5643 5643 5643 5642 5642 5642 5641 5641 5640 5640 5640 5639 5639 5638 5638 5637 5636 5636 5635 5634 5633 5632 5631 5630 5630 5629 5627 5626 5625 5624 5623 5621 5620 5618 5617 5615 5614 5613 5611 5610 5608 5606 5605 5603 5601 5599 5597 5595 5593 5591 5589 5586 5584 5581 5579 5576 5574 5571 5568
5641 5641 5641 5641 5641 5641 5641 5641 5641 5641 5640 5640 5640 5640 5639 5639 5638 5638 5637 5637 5636 5636 5635 5635 5635 5634 5633 5632 5632 5631 5630 5629 5628 5627 5626 5625 5624 5622 5621 5620 5619 5618 5616 5615 5613 5612 5610 5609 5607 5605 5604 5602 5601 5599 5597 5595 5594 5591 5589 5587 5585 5582 5580 5577 5575 5572 5569 5566 5564
5638 5638 5638 5638 5638 5638 5638 5638 5638 5638 5637 5637 5637 5636 5636 5636 5635 5635 5634 5634 5633 5633 5632 5632 5631 5630 5630 5629 5628 5628 5627 5626 5625 5624 5622 5621 5620 5619 5618 5616 5615 5614 5612 5611 5609 5608 5606 5605 5603 5602 5600 5598 5597 5595 5593 5592 5590 5588 5585 5583 5581 5578 5576 5573 5570 5568 5565 5562 5559